Tulsa Jones, OK

11:35 PM CDT on July 25, 2017 (GMT -0500)
Jones Jr.

Weather History for KRVS - March, 2013

Change the Weather History Date:

Saturday, March 30, 2013

  Actual Average (KTUL) Record (KTUL)
Temperature  
Mean Temperature 66 °F -  
Max Temperature 77 °F 65 °F 86 °F (1981)
Min Temperature 55 °F 42 °F 21 °F (1964)
Cooling Degree Days 1    
Growing Degree Days 16 (Base 50)    
Moisture  
Dew Point 54 °F    
Average Humidity 73    
Maximum Humidity 88    
Minimum Humidity 50    
Precipitation  
Precipitation 0.30 in - - ()
Sea Level Pressure  
Sea Level Pressure 29.98 in    
Wind  
Wind Speed 6 mph (SSE)    
Max Wind Speed 13 mph    
Max Gust Speed 21 mph    
Visibility 9 miles    
Events Rain    
Averages and records for this station are not official NWS values.
T = Trace of Precipitation, MM = Missing Value Source: NWS Daily Summary

Daily Weather History Graph

Daily Weather History Graph

Search for Another Location

Airport or City:

Trip Planner

Search our weather history database for the weather conditions in past years. The results will help you decide how hot, cold, wet, or windy it might be!

Date:

Astronomy

Mar. 30, 2013 Rise Set
Actual Time 7:12 AM CDT 7:44 PM CDT
Civil Twilight 6:46 AM CDT 8:10 PM CDT
Nautical Twilight 6:16 AM CDT 8:40 PM CDT
Astronomical Twilight 5:45 AM CDT 9:11 PM CDT
Moon 11:44 PM CDT (3/30) 9:15 AM CDT (3/30)
Length of Visible Light 13h 23m
Length of Day
12h 31m
Waning Gibbous, 86% of the Moon is Illuminated
Mar 30
Waning Gibbous
Apr 2
Last Quarter
Apr 10
New
Apr 18
First Quarter
Apr 25
Full

Hourly Weather History & Observations

Time (CDT) Temp. Dew Point Humidity Pressure Visibility Wind Dir Wind Speed Gust Speed Precip Events Conditions
12:30 AM 59.0 °F 53.6 °F 82% 30.06 in 10.0 mi SE 3.5 mph - N/A   Overcast
12:53 AM 60.1 °F 54.0 °F 80% 30.08 in 10.0 mi ESE 6.9 mph - N/A   Overcast
1:53 AM 59.0 °F 53.1 °F 81% 30.06 in 10.0 mi SSE 4.6 mph - N/A   Mostly Cloudy
2:39 AM 59.0 °F 53.6 °F 82% 30.04 in 10.0 mi South 4.6 mph - N/A   Overcast
2:53 AM 59.0 °F 53.1 °F 81% 30.06 in 10.0 mi SSE 5.8 mph - N/A   Overcast
3:34 AM 57.2 °F 51.8 °F 82% 30.01 in 10.0 mi SSE 8.1 mph 16.1 mph N/A   Overcast
3:53 AM 57.9 °F 52.0 °F 81% 30.02 in 10.0 mi SSE 8.1 mph - N/A   Overcast
4:53 AM 57.9 °F 51.1 °F 78% 30.01 in 10.0 mi SSE 8.1 mph - N/A   Overcast
5:53 AM 59.0 °F 51.1 °F 75% 30.01 in 10.0 mi SSE 9.2 mph - 0.00 in   Mostly Cloudy
6:53 AM 59.0 °F 50.0 °F 72% 30.02 in 10.0 mi South 9.2 mph - N/A   Mostly Cloudy
7:53 AM 57.9 °F 50.0 °F 75% 30.05 in 10.0 mi Calm Calm - N/A   Mostly Cloudy
8:53 AM 57.9 °F 51.1 °F 78% 30.04 in 10.0 mi ENE 9.2 mph - 0.00 in   Mostly Cloudy
9:24 AM 55.4 °F 51.8 °F 88% 30.08 in 2.5 mi Variable 3.5 mph 20.7 mph 0.13 in Rain Heavy Rain
9:32 AM 55.4 °F 51.8 °F 88% 30.06 in 1.5 mi East 6.9 mph - 0.28 in Rain Heavy Rain
9:37 AM 55.4 °F 51.8 °F 88% 30.04 in 3.0 mi SE 6.9 mph - 0.28 in Rain Light Rain
9:46 AM 55.4 °F 51.8 °F 88% 30.04 in 10.0 mi South 6.9 mph - 0.30 in Rain Light Rain
9:53 AM 55.9 °F 52.0 °F 87% 30.07 in 10.0 mi South 5.8 mph - 0.30 in Rain Light Rain
10:53 AM 60.1 °F 55.0 °F 83% 30.03 in 10.0 mi SSE 9.2 mph - 0.00 in   Clear
11:53 AM 66.0 °F 55.9 °F 70% 30.01 in 10.0 mi SSE 8.1 mph - N/A   Clear
12:53 PM 69.1 °F 55.0 °F 61% 29.99 in 10.0 mi South 12.7 mph - N/A   Partly Cloudy
1:26 PM 69.8 °F 53.6 °F 56% 29.95 in 10.0 mi South 10.4 mph - N/A   Mostly Cloudy
1:37 PM 69.8 °F 55.4 °F 60% 29.94 in 10.0 mi SSW 10.4 mph - N/A   Mostly Cloudy
1:53 PM 70.0 °F 55.9 °F 61% 29.96 in 10.0 mi SSW 11.5 mph 17.3 mph N/A   Overcast
2:53 PM 71.1 °F 55.0 °F 57% 29.92 in 10.0 mi South 12.7 mph - N/A   Overcast
3:53 PM 73.9 °F 55.9 °F 53% 29.89 in 10.0 mi South 10.4 mph - N/A   Mostly Cloudy
4:53 PM 75.9 °F 55.9 °F 50% 29.86 in 10.0 mi South 6.9 mph 16.1 mph N/A   Partly Cloudy
5:53 PM 77.0 °F 57.0 °F 50% 29.85 in 10.0 mi South 6.9 mph - N/A   Partly Cloudy
6:53 PM 75.9 °F 57.0 °F 52% 29.84 in 10.0 mi Variable 3.5 mph - N/A   Scattered Clouds
7:53 PM 70.0 °F 57.0 °F 63% 29.85 in 10.0 mi Calm Calm - N/A   Partly Cloudy
8:53 PM 69.1 °F 59.0 °F 70% 29.86 in 10.0 mi East 8.1 mph - N/A   Partly Cloudy
9:53 PM 64.0 °F 57.0 °F 78% 29.88 in 10.0 mi Calm Calm - N/A   Clear
10:53 PM 61.0 °F 55.9 °F 83% 29.90 in 10.0 mi Calm Calm - N/A   Clear
11:53 PM 62.1 °F 57.0 °F 84% 29.91 in 10.0 mi Calm Calm - N/A   Clear